Weather History for Westfield, MA

Change the Weather History Date:

Friday, February 28, 2014

  Actual Average Record
Temperature  
Mean Temperature 12 °F -  
Max Temperature 21 °F 37 °F 50 °F (2004)
Min Temperature 3 °F 20 °F 3 °F (2006)
Degree Days  
Heating Degree Days 53    
Moisture  
Dew Point -9 °F    
Average Humidity 41    
Maximum Humidity 66    
Minimum Humidity 23    
Precipitation  
Precipitation 0.00 in - - ()
Sea Level Pressure  
Sea Level Pressure 30.31 in    
Wind  
Wind Speed 10 mph (WNW)    
Max Wind Speed 22 mph    
Max Gust Speed 36 mph    
Visibility 10 miles    
Events Snow    
Averages and records for this station are not official NWS values.
T = Trace of Precipitation, MM = Missing Value Source: NWS Daily Summary

Daily Weather History Graph

Daily Weather History Graph

Search for Another Location

Airport:

Trip Planner

Search our weather history database for the weather conditions in past years. The results will help you decide how hot, cold, wet, or windy it might be!

Date:

Astronomy

Feb. 28, 2014 Rise Set
Actual Time 6:27 AM EST 5:39 PM EST
Civil Twilight 5:59 AM EST 6:07 PM EST
Nautical Twilight 5:27 AM EST 6:40 PM EST
Astronomical Twilight 4:54 AM EST 7:12 PM EST
Moon 5:40 AM EST (2/28) 5:13 PM EST (2/28)
Length of Visible Light 12h 08m
Length of Day
11h 12m
Waning Crescent, 1% of the Moon is Illuminated
Feb 28
Waning Crescent
Mar 1
New
Mar 8
First Quarter
Mar 16
Full
Mar 23
Last Quarter

Hourly Weather History & Observations

Time (EST) Temp. Windchill Dew Point Humidity Pressure Visibility Wind Dir Wind Speed Gust Speed Precip Events Conditions
12:53 AM 10.0 °F -5.2 °F -8.0 °F 44% 30.04 in 9.0 mi WNW 12.7 mph 18.4 mph 0.00 in Snow Light Snow
1:53 AM 9.0 °F -2.2 °F -7.1 °F 48% 30.08 in 9.0 mi West 6.9 mph - 0.00 in Snow Light Snow
2:53 AM 8.1 °F -3.2 °F -5.1 °F 55% 30.10 in 9.0 mi West 6.9 mph - 0.00 in Snow Light Snow
3:53 AM 8.1 °F -6.2 °F -6.0 °F 53% 30.14 in 9.0 mi WNW 10.4 mph - 0.00 in Snow Light Snow
4:53 AM 8.1 °F -9.0 °F -8.0 °F 48% 30.17 in 9.0 mi WNW 15.0 mph - 0.00 in Snow Light Snow
5:53 AM 8.1 °F -9.0 °F -7.1 °F 50% 30.20 in 9.0 mi WNW 15.0 mph 26.5 mph 0.00 in Snow Light Snow
6:53 AM 7.0 °F -8.3 °F -8.0 °F 51% 30.24 in 10.0 mi NW 11.5 mph 21.9 mph 0.00 in   Clear
7:53 AM 9.0 °F -0.9 °F -8.0 °F 46% 30.29 in 10.0 mi Variable 5.8 mph - N/A   Clear
8:53 AM 10.9 °F -8.3 °F -9.0 °F 40% 30.31 in 10.0 mi NW 21.9 mph 35.7 mph N/A   Clear
9:53 AM 14.0 °F -2.5 °F -11.0 °F 32% 30.34 in 10.0 mi NNW 17.3 mph 23.0 mph N/A   Clear
10:53 AM 15.1 °F 3.3 °F -9.9 °F 32% 30.36 in 10.0 mi WNW 9.2 mph 19.6 mph N/A   Clear
11:53 AM 18.0 °F - -11.9 °F 26% 30.35 in 10.0 mi North - - N/A   Clear
12:53 PM 19.0 °F 5.0 °F -11.9 °F 25% 30.34 in 10.0 mi WNW 15.0 mph 20.7 mph 0.00 in   Clear
1:53 PM 19.9 °F 8.6 °F -9.9 °F 26% 30.34 in 10.0 mi NW 10.4 mph - N/A   Clear
2:53 PM 21.0 °F 14.6 °F -11.9 °F 23% 30.36 in 10.0 mi NNW 4.6 mph - N/A   Clear
3:53 PM 21.0 °F 12.4 °F -11.0 °F 24% 30.38 in 10.0 mi NW 6.9 mph - N/A   Clear
4:53 PM 19.9 °F 9.3 °F -9.9 °F 26% 30.38 in 10.0 mi NW 9.2 mph - N/A   Clear
5:53 PM 18.0 °F 8.7 °F -8.0 °F 31% 30.39 in 10.0 mi NW 6.9 mph - N/A   Clear
6:53 PM 15.1 °F 7.7 °F -9.0 °F 34% 30.41 in 10.0 mi West 4.6 mph - N/A   Clear
7:53 PM 14.0 °F 6.5 °F -9.9 °F 34% 30.42 in 10.0 mi WNW 4.6 mph - N/A   Clear
8:53 PM 8.1 °F - -7.1 °F 50% 30.44 in 10.0 mi Calm Calm - N/A   Clear
9:53 PM 7.0 °F - -8.0 °F 51% 30.45 in 10.0 mi Calm Calm - N/A   Clear
10:53 PM 3.9 °F - -5.1 °F 66% 30.45 in 10.0 mi Calm Calm - N/A   Clear
11:53 PM 3.0 °F - -7.1 °F 63% 30.46 in 10.0 mi Calm Calm - N/A   Clear